Regional Weather Roundup
Issued by NWS Spokane, WA

Current Version | Previous Version | Text Only | Print | Product List | Glossary On
Versions: 1 2 3 4 5 6 7 8 9 10 11 12 13 14 15 16 17 18 19 20 21 22 23 24 25 26 27 28 29 30 31 32 33 34 35 36 37 38 39 40 41 42 43 44 45 46 47 48 49 50
000
NZUS01 KOTX 180425
RWROTX

Eastern Washington/Northern Idaho Roundup
National Weather Service, Spokane WA
900 PM PDT TUE OCT 17 2017

Note: "fair" indicated few or no clouds below 12,000 feet with no
significant weather and/or obstructions to visibility.

...Northeast Washington and Northern Idaho Panhandle...

CITY           SKY/WX    TMP DP  RH WIND       PRES   REMARKS
Spokane Intl   CLOUDY    50  19  29 W12       30.04R
Spokane Downto CLOUDY    53  21  28 W3        30.04R
Coeur d Alene  CLOUDY    50  24  36 W8        30.03R
Deer Park      CLOUDY    49  18  29 NW6       30.03R
Sandpoint      CLOUDY    52  16  24 SW3       30.00R

...Southeast Washington and southern Idaho Panhandle...

CITY           SKY/WX    TMP DP  RH WIND       PRES   REMARKS
Walla Walla    CLOUDY    57  44  62 SW13      30.10R
Pullman/Moscow CLOUDY    48  28  46 SW5       30.09R
Lewiston       CLOUDY    60  25  26 NW10      30.06R
Lowell           N/A     48  46  93 CALM      30.09R
Grangeville    MOCLDY    55  37  50 W17G23    30.09R

...Columbia Basin...

CITY           SKY/WX    TMP DP  RH WIND       PRES   REMARKS
Ephrata        CLOUDY    53  21  28 NW15      30.04R
Moses Lake     CLOUDY    51  30  44 W9        30.06R
Pasco          CLOUDY    52  33  48 CALM      30.09R
Richland       CLOUDY    55  33  43 CALM      30.10R
Hermiston      CLOUDY    56  46  69 SW12      30.08R
Pendleton      MOCLDY    56  42  59 SW10      30.10R

...East Slopes Cascades...

CITY           SKY/WX    TMP DP  RH WIND       PRES   REMARKS
The Dalles     PTCLDY    54  45  71 VRB3      30.11R
Yakima         MOCLDY    49  32  52 CALM      30.08R
Ellensburg     MOCLDY    46  34  62 NW9       30.08R
Stampede Pass  MOCLDY    37  36  96 VRB3      30.08S
Wenatchee      MOCLDY    46  29  51 W5        30.07R
Omak           MOCLDY    43  21  41 N3        30.03R
Chelan           N/A     52  27  37 S12         N/A
Sunnyside      MOCLDY    41  33  73 N3        30.08R

...Southern British Columbia...

CITY           SKY/WX    TMP DP  RH WIND       PRES   REMARKS
Penticton      PTCLDY    43  28  56 VRB5      30.02R
Castlegar      PTCLDY    46  32  57 NE5       30.04R
Cranbrook      PTCLDY    41  23  48 SW8       29.93R
Osoyoos          N/A     54  25  32 NW6         N/A
Creston          N/A     46  30  53 NW6         N/A

...Western Montana...

CITY           SKY/WX    TMP DP  RH WIND       PRES   REMARKS
Kalispell      CLOUDY    50  26  39 NW14G22   29.90R
Libby            N/A     55  12  18 CALM      29.94R
Missoula       MOCLDY    56  37  49 NW29G43   29.96R

...Neighboring Cities...

CITY           SKY/WX    TMP DP  RH WIND       PRES   REMARKS
Seattle        CLOUDY    53  39  59 VRB6      30.12R
Portland       CLOUDY    49  48  97 CALM      30.14S FOG
Boise          CLEAR     47  33  58 CALM      30.09R
Great Falls    PTCLDY    60  24  25 W31G46    29.73R
Calgary        PTCLDY    36  32  87 N2        29.71R



USA.gov is the U.S. government's official web portal to all federal, state and local government web resources and services.